Weather in Rybnoe

Russia / Ryazan Oblast     54°43′50″N   39°30′19″E
temp.,
°C
wind,
m/s
gust,
m/s
humid.,
%
clouds,
%
prec.,
mm/h
press.,
hPa
HPBL,
m
2 march, tue
tue200:00+1w61392100 0.0 1015625
03:00+1w61394100 0.0 1013575
06:00+1w61494100 0.0 1010633
09:00+1wnw71498100 0.1 1009686
12:00+1nw61297100 0.2 1008736
15:00+1wnw6129487 0.3 1008744
18:00−1nw51287100 0.1 1008403
21:00−2nw5128892 0.1 1010392
3 march, wed
wed300:00−2nw6129198 0.1 1010645
03:00−3nw6129498 0.3 1012646
06:00−6nw6139057 0.0 1013494
09:00−6nw6138877 0.0 1015701
12:00−3nw6108221 0.0 1015866
15:00−1wnw7118936 0.1 10151056
18:00−2wnw6129095 0.1 1014541
21:00−2w6129296 0.2 1015536
4 march, thu
thu400:00−3w5119196 0.1 1013359
03:00−2wsw5119098 0.1 1011663
06:00−2wsw71588100 0.0 1008484
09:00−1wsw81686100 0.0 1005655
12:00+1wsw81582100 0.0 1002939
15:00+1wsw7149198 0.0 10001009
18:00+1w71491100 0.0 999790
21:000w61294100 0.1 1000551
5 march, fri
fri500:00−3nw3584100 0.4 1001104
03:00−4nw3589100 0.4 1003119
06:00−6nnw3392100 0.0 100583
09:00−6nnw2393100 0.0 1007115
12:00−4nnw1185100 0.0 1007339
15:00−3nne0182100 0.0 1008404
18:00−5nnw0189100 0.0 100721
21:00−5n2290100 0.0 100828
6 march, sat
sat600:00−7n3393100 0.0 100852
03:00−9nnw349587 0.0 100947
06:00−10nw34956 0.0 101056
09:00−9nw359319 0.0 1010230
12:00−6nw468999 0.1 1011639
15:00−5wnw5780100 0.1 1011905
18:00−9wnw348564 0.0 101154
21:00−10wsw349153 0.0 101243